Vertical_Velocity
-5 -0 -0 -3 -3 0 2 -4 1 2 -2 3 -0 5 -0 -4 -7 0 2 -1 -0 -1 6 -1 -0 2 0 2 3 2 1 -8 2 3 6 -4 -1 2 2 5 0 2 2 -4 6 2 -16 -3 1 -0 1 1 3 2
1 1 -5 -1 1 -3 4 -3 1 -5 1 -1 -3 -2 6 5 -7 -4 -5 7 -2 1 -3 -5 -3 5 1 4 3 -2 -4 6 6 -1 -5 1 1 1 -2 -4 -3 -3 1 2 -11 -2 -1 -3 -7 -5 -1 1 -1 0
-4 2 1 -2 -3 -1 -1 -1 0 -2 3 1 -10 -3 1 5 5 -1 -1 -4 0 -8 -6 -4 -1 3 -0 -4 12 -4 1 10 2 9 3 6 3 1 -3 -4 2 -6 -2 -8 4 -0 0 8 3 -4 -1 1 -2 1
-2 -2 -3 2 4 -3 -1 0 -0 5 3 -0 -2 8 9 9 -3 0 1 -1 -1 -4 -10 -10 4 -1 3 3 -3 -6 1 2 3 7 2 4 5 1 -3 -1 1 1 9 -1 -6 -12 5 4 12 3 8 2 -2 -2
-1 1 -0 0 -6 0 -4 4 9 -3 2 3 12 -3 0 3 -4 -1 2 4 3 1 -6 -2 -6 4 3 5 1 5 6 7 7 -0 3 2 -1 2 -0 10 -13 -1 1 3 -39 16 5 -5 -8 1 -8 -7 -3 5
-2 0 2 -2 -4 9 -9 -4 -4 -3 1 1 1 8 3 3 3 3 -1 -4 -3 -1 2 0 -6 -11 -4 3 -1 1 8 7 3 3 4 1 8 9 -7 -6 5 -4 4 12 -10 -3 -5 -3 -2 -3 -1 7 1 -2
-4 -2 -1 1 2 1 1 6 1 1 -4 2 -2 1 -0 -3 0 7 0 4 2 -4 -2 -1 -6 0 0 -6 -2 2 2 2 7 2 -2 2 2 4 8 -9 -1 -3 7 3 11 8 1 8 2 -0 3 -0 0 4
1 -3 0 0 -3 -3 3 -1 3 5 11 4 1 -0 -4 0 1 -1 -6 0 5 7 5 0 -4 -4 1 1 -2 -2 -2 3 -4 5 0 -3 3 5 -5 -14 -3 -3 1 2 0 5 8 1 5 4 1 -1 1 2
-5 1 -3 1 -1 3 -3 -2 2 -2 -1 3 6 4 -2 -2 -2 2 -1 6 -2 9 -2 -8 0 -2 -3 2 4 -2 -3 -3 -4 0 -4 -1 0 -3 -5 -1 1 10 2 3 3 -1 -1 1 -2 -3 -0 -1 4 3
1 1 -5 -3 2 -4 1 0 3 1 4 -0 6 0 2 2 2 -2 4 6 8 1 -1 -12 -3 -5 6 5 2 4 -6 -7 -2 1 -0 3 -14 2 -3 2 1 4 2 -1 -3 -3 -2 3 6 2 3 0 5 3
-1 1 1 -5 1 -0 0 0 1 -1 2 -1 -0 3 6 4 -3 -0 -3 5 2 -2 -9 -2 3 6 3 2 4 4 1 -2 2 -3 2 4 -8 -1 -4 2 5 1 -0 -1 1 -4 0 2 -1 -3 0 1 3 -1
-1 3 7 -6 -2 3 -1 -4 3 3 -3 7 6 -0 -1 3 -1 1 2 -0 1 -1 -5 3 -7 -5 -6 -1 0 -4 0 0 -2 1 1 -5 -12 2 -2 2 0 2 -0 2 5 14 9 10 6 -1 -5 -7 -5 -5
7 3 2 2 0 1 9 7 1 2 1 3 1 -0 -1 -5 6 -7 -3 -6 -5 -3 -1 -1 -2 -1 2 4 -2 -2 2 -1 2 3 -6 -13 2 5 -2 -8 -5 -0 -1 -3 -3 -2 -0 -1 0 -4 -10 -3 -4 -6
9 0 3 4 -3 -5 13 3 8 0 2 1 2 -1 -2 0 -3 -9 4 0 -1 -0 -1 -1 2 -1 -0 -1 1 -3 2 2 1 -1 -12 7 6 -0 -5 1 1 2 4 3 1 1 1 3 1 1 5 2 -2 -7
-4 19 4 -6 4 11 3 -7 19 5 14 -0 -7 -5 -7 -5 -3 0 3 5 5 1 4 1 2 3 4 -0 -2 -0 -0 -2 -3 -8 -16 -18 -12 4 7 4 6 2 -6 -13 -7 -8 -8 -3 -2 -4 1 -10 -3 -0
3 -3 1 4 4 -4 16 28 -0 1 -5 -8 1 -0 1 0 4 7 6 1 1 2 2 1 -0 -1 2 -1 -2 -0 2 -16 -18 -1 5 3 -10 -6 10 13 1 7 -6 -7 -4 -2 -3 -2 -2 -10 -10 -4 2 5
-4 -27 11 7 7 12 21 7 3 4 7 -8 -10 -5 -1 4 7 7 -2 -3 2 4 3 -0 -5 2 3 -4 -6 -5 -19 3 -4 -7 3 3 3 -0 -5 -6 -3 -3 -3 -2 1 3 3 4 2 -1 -7 -1 4 -7
-17 7 19 16 16 16 -1 -0 9 2 2 -10 -1 3 0 3 6 5 2 1 2 2 0 -1 3 -3 -9 -16 -21 -2 5 7 3 -2 -2 2 -4 -5 -3 -4 -0 4 -2 -0 2 -1 2 3 -2 -4 -3 5 -7 1
5 3 24 28 -3 8 7 1 -4 2 -7 -6 -5 -3 -3 1 5 7 5 4 1 -2 6 -1 -1 -22 -17 4 4 2 1 -2 -7 -2 -7 -4 2 -6 -5 3 2 -1 2 4 4 1 -2 1 -6 -2 4 -0 -12 -7
1 2 35 21 10 6 8 10 2 -4 -14 -14 -1 -0 1 -0 7 4 3 -2 1 9 4 -23 -30 -7 -2 -0 15 9 2 -3 6 2 -11 -8 0 -8 -4 -2 -3 -0 -6 -4 -1 0 -4 -6 11 4 4 3 -5 -7
-2 -1 56 22 14 8 -0 -12 -9 -6 -4 -4 3 3 -5 -0 0 2 3 10 4 -17 -21 -23 -17 4 23 11 11 4 -5 11 1 -2 -4 -25 6 -1 -2 2 -1 -6 -6 0 -3 3 8 -4 -1 3 -3 -6 7 -3
9 62 11 9 4 -1 -2 -4 -8 -5 -5 -8 -2 -0 -5 -4 -0 8 3 3 -9 -8 -3 7 1 3 2 9 4 5 7 9 -3 -5 3 1 -12 0 7 3 -2 -3 2 -2 8 -7 -8 9 7 -3 -5 -4 4 -2
49 11 10 2 -2 -1 -3 -2 -3 2 -2 -8 2 1 -8 -5 -1 3 -4 -16 -23 8 17 3 3 7 -4 -4 -4 4 10 -3 -2 6 -4 4 6 -5 -14 1 11 -3 -13 10 9 -3 -9 5 4 -1 -5 -1 -1 -3
18 5 3 -2 -1 0 -7 -4 -2 -1 -3 -5 -2 -4 -7 -1 -5 -10 -27 -15 -9 12 15 6 9 2 3 -3 -3 3 13 3 -2 -10 2 -3 1 -8 2 -1 7 2 2 -11 7 -0 1 -6 2 2 4 -2 1 -3
12 14 6 1 -6 -6 -2 -0 -0 -1 -8 -7 -8 -3 -8 -2 -10 -11 -20 -6 11 0 -0 1 3 4 -3 -8 -6 -4 16 10 -5 -21 2 12 -3 -5 -5 7 6 8 7 2 -1 -4 -2 -1 2 1 3 2 -1 0
7 6 -1 -4 -6 -2 -9 -3 -2 -2 0 0 -0 -3 -2 1 -0 -22 -11 8 -2 -4 -4 -3 -5 -10 -8 4 -12 -3 -1 8 -4 -12 -0 7 1 -2 -4 -4 -3 -4 12 -1 -7 -3 -1 1 -1 -0 -1 2 3 6
-3 -5 -10 -1 -5 -2 -4 -3 0 4 -1 -3 -4 2 7 -3 -14 -16 1 1 -1 6 6 5 2 -2 -9 -8 3 2 0 6 2 -3 -3 -2 2 5 3 -5 -10 -0 3 -0 -2 -2 -4 -0 -1 1 -3 1 2 5
-10 -7 -2 0 -6 0 -0 3 0 -2 -0 -0 -2 -0 -6 -10 -15 -0 2 3 1 0 2 7 4 -1 -2 1 0 -2 1 1 -0 1 -1 0 10 6 8 2 3 4 3 3 2 1 3 1 -0 0 1 1 1 5
-1 -2 -2 -1 0 -1 -4 -3 -4 -3 5 5 -0 -0 -10 -5 -0 -3 12 4 1 -1 -5 -3 9 1 3 2 1 -1 -2 -4 -8 -11 -8 -9 -3 15 4 4 4 3 1 -1 5 2 2 1 0 0 1 -1 1 1
1 -2 -1 0 -0 -5 2 3 1 7 -1 -4 -6 -10 -6 3 16 7 -4 4 1 1 3 1 1 1 -1 -3 -4 7 11 3 4 4 -3 -2 -0 1 3 4 3 3 1 0 0 3 3 -0 1 0 -1 0 1 1
-1 2 -1 -3 -14 -3 1 -5 -5 -2 -3 -4 8 -10 -10 -7 7 3 8 2 1 3 3 3 -1 -3 -3 -2 -4 -10 -0 11 4 5 2 -2 -1 0 1 3 5 4 3 0 -1 -0 0 1 -0 1 1 0 -1 -1
-4 -5 -7 -7 -3 2 -1 -1 -0 -2 3 2 4 4 2 -8 -2 -2 4 2 3 3 1 -1 -0 2 1 -1 -0 -1 -3 -3 -0 1 1 2 1 -0 -1 1 2 1 1 1 0 0 1 1 1 1 -0 -1 -2 -2
-2 1 1 -3 -4 -3 -0 0 -4 -10 -5 -3 -2 0 2 -4 -1 1 3 3 1 0 1 0 -0 -1 -2 -5 -4 -1 2 3 3 3 2 2 4 1 -1 2 3 1 -0 -0 0 1 1 0 -0 -1 -1 -1 -1 0
Height
3073 3076 3079 3082 3085 3087 3090 3092 3092 3093 3093 3093 3094 3094 3094 3094 3094 3095 3095 3094 3094 3094 3096 3094 3094 3093 3091 3092 3091 3090 3091 3089 3088 3089 3085 3083 3082 3081 3078 3076 3075 3076 3075 3074 3078 3079 3070 3064 3063 3065 3063 3060 3059 3059
3064 3067 3068 3071 3074 3078 3080 3081 3083 3084 3083 3084 3085 3086 3086 3086 3086 3087 3088 3087 3085 3085 3087 3087 3087 3086 3084 3084 3084 3080 3085 3083 3081 3079 3079 3078 3075 3074 3073 3073 3074 3074 3072 3069 3070 3064 3060 3058 3058 3059 3059 3057 3056 3056
3055 3057 3059 3062 3064 3066 3068 3070 3071 3072 3073 3074 3075 3077 3078 3077 3078 3078 3079 3079 3077 3075 3077 3076 3077 3076 3075 3075 3076 3073 3074 3075 3073 3072 3071 3071 3067 3065 3066 3065 3065 3063 3065 3064 3063 3059 3059 3056 3052 3053 3052 3050 3049 3048
3047 3049 3050 3053 3055 3056 3058 3059 3060 3062 3062 3064 3065 3070 3071 3069 3070 3070 3070 3071 3070 3070 3064 3065 3067 3067 3066 3065 3066 3065 3067 3065 3064 3063 3060 3060 3059 3057 3054 3055 3053 3059 3058 3054 3050 3052 3053 3050 3048 3045 3043 3040 3038 3035
3037 3040 3041 3044 3046 3046 3048 3050 3049 3052 3054 3055 3056 3058 3060 3063 3060 3062 3062 3063 3062 3065 3057 3054 3058 3061 3059 3059 3058 3057 3056 3055 3054 3053 3052 3051 3051 3052 3047 3043 3035 3044 3043 3045 3038 3043 3041 3037 3039 3037 3030 3027 3027 3023
3026 3030 3032 3033 3037 3036 3040 3040 3042 3043 3045 3045 3048 3048 3050 3052 3053 3052 3051 3053 3054 3055 3052 3045 3042 3046 3051 3050 3048 3048 3047 3045 3045 3044 3041 3039 3041 3044 3038 3029 3028 3036 3035 3033 3029 3031 3029 3026 3024 3021 3020 3018 3015 3016
3017 3019 3021 3023 3026 3027 3030 3032 3033 3034 3036 3037 3039 3041 3041 3043 3045 3045 3044 3044 3045 3046 3045 3041 3037 3034 3035 3037 3037 3037 3038 3038 3038 3036 3029 3030 3031 3033 3028 3021 3025 3027 3027 3026 3024 3020 3017 3016 3012 3011 3010 3008 3006 3006
3009 3012 3013 3014 3016 3018 3021 3023 3023 3025 3026 3026 3028 3030 3033 3034 3035 3036 3037 3036 3037 3037 3035 3034 3029 3032 3033 3032 3031 3031 3031 3031 3029 3028 3024 3023 3024 3023 3016 3014 3018 3017 3017 3014 3011 3011 3008 3006 3004 3001 2999 2998 2997 2995
3002 3003 3006 3008 3008 3010 3012 3015 3015 3016 3018 3019 3020 3022 3023 3024 3026 3028 3029 3028 3027 3034 3024 3023 3023 3026 3024 3025 3023 3025 3024 3024 3022 3018 3018 3019 3014 3013 3012 3009 3009 3007 3003 3003 3002 3001 3000 2997 2994 2991 2989 2988 2988 2986
2995 2996 2998 3001 3003 3003 3005 3008 3009 3008 3011 3012 3014 3016 3014 3015 3016 3021 3021 3022 3019 3018 3015 3013 3015 3021 3024 3020 3019 3022 3018 3018 3014 3012 3011 3005 3000 3007 3006 3003 3000 2997 2994 2993 2994 2993 2992 2989 2986 2984 2982 2980 2978 2978
2988 2991 2991 2993 2996 2997 2999 3001 3005 3002 3005 3004 3007 3010 3011 3010 3011 3014 3017 3015 3012 3009 3009 3006 3006 3011 3015 3015 3014 3015 3011 3013 3008 3007 3009 3000 2995 3000 3000 2999 2995 2992 2990 2989 2988 2987 2986 2982 2979 2976 2974 2973 2972 2971
2982 2985 2985 2987 2991 2992 2993 2996 2998 2997 3000 3003 3002 3002 3008 3009 3008 3010 3006 3008 3006 3002 3003 2998 3001 3004 3009 3011 3008 3012 3011 3009 3005 3003 3002 2994 2995 2994 2995 2994 2991 2988 2986 2984 2982 2980 2978 2976 2974 2971 2968 2967 2966 2964
2975 2978 2979 2983 2986 2989 2989 2990 2991 2992 2996 2998 2999 3001 3002 3005 3001 2997 2999 2997 2997 2996 2996 2998 3000 3003 3005 3004 3004 3008 3006 3004 3002 2999 2997 2992 2990 2989 2989 2990 2988 2984 2980 2979 2977 2975 2973 2970 2968 2964 2960 2959 2955 2952
2968 2971 2975 2977 2980 2983 2986 2987 2987 2990 2991 2993 2995 2996 2998 2995 2990 2991 2993 2992 2994 2994 2995 2999 3000 3000 2999 3001 3001 3001 3001 2999 2996 2993 2991 2991 2989 2986 2984 2983 2980 2977 2974 2971 2969 2966 2963 2960 2957 2954 2951 2948 2944 2941
2960 2965 2965 2972 2976 2978 2978 2984 2985 2984 2989 2985 2991 2990 2988 2988 2988 2987 2987 2988 2990 2992 2992 2995 2998 2999 2996 2994 2995 2997 2996 2993 2990 2988 2987 2985 2984 2981 2978 2975 2972 2967 2964 2961 2960 2957 2954 2950 2946 2942 2941 2937 2934 2930
2951 2955 2960 2965 2969 2973 2976 2974 2976 2980 2981 2985 2984 2983 2982 2982 2982 2983 2982 2985 2989 2990 2990 2992 2993 2995 2991 2987 2988 2987 2986 2984 2983 2981 2979 2976 2973 2971 2968 2964 2960 2956 2952 2949 2947 2945 2942 2939 2936 2932 2929 2926 2922 2917
2942 2945 2953 2958 2962 2966 2967 2970 2972 2975 2975 2976 2979 2978 2979 2981 2979 2977 2979 2986 2988 2988 2987 2987 2988 2987 2984 2982 2979 2977 2974 2974 2973 2971 2969 2966 2961 2957 2954 2950 2946 2943 2941 2938 2935 2933 2930 2927 2923 2919 2916 2914 2910 2907
2932 2939 2945 2950 2956 2959 2962 2965 2968 2969 2968 2972 2974 2975 2976 2979 2979 2979 2981 2984 2986 2984 2982 2982 2981 2977 2975 2972 2967 2969 2968 2967 2963 2959 2955 2950 2946 2943 2941 2937 2934 2932 2928 2926 2924 2921 2918 2914 2911 2908 2905 2903 2899 2897
2926 2932 2935 2942 2948 2954 2957 2959 2962 2962 2965 2968 2970 2972 2973 2974 2976 2977 2978 2979 2979 2978 2977 2974 2972 2966 2962 2961 2962 2961 2958 2955 2950 2945 2941 2938 2936 2933 2930 2926 2923 2920 2917 2914 2912 2908 2905 2903 2900 2898 2896 2893 2889 2886
2919 2925 2929 2935 2944 2948 2951 2953 2956 2960 2962 2963 2964 2967 2968 2968 2970 2971 2971 2971 2970 2969 2967 2962 2959 2956 2955 2955 2954 2950 2947 2943 2938 2931 2928 2926 2924 2922 2919 2916 2912 2908 2904 2902 2899 2897 2894 2892 2891 2889 2886 2883 2879 2875
2915 2919 2927 2932 2937 2943 2947 2948 2952 2956 2957 2958 2959 2960 2960 2961 2962 2963 2963 2964 2961 2959 2954 2951 2947 2946 2945 2943 2942 2938 2934 2931 2926 2922 2916 2912 2913 2909 2906 2903 2901 2898 2894 2891 2888 2886 2884 2881 2880 2877 2874 2870 2867 2862
2907 2915 2921 2928 2933 2938 2942 2944 2948 2951 2954 2953 2954 2954 2954 2953 2953 2953 2952 2950 2948 2946 2942 2939 2936 2933 2932 2930 2928 2926 2921 2918 2915 2912 2909 2905 2900 2897 2894 2892 2890 2887 2884 2880 2877 2874 2872 2870 2866 2863 2860 2856 2853 2849
2908 2914 2919 2924 2931 2935 2940 2942 2944 2946 2947 2946 2947 2947 2946 2945 2945 2944 2941 2938 2936 2935 2931 2927 2925 2924 2920 2918 2915 2912 2911 2908 2904 2902 2898 2894 2891 2887 2884 2881 2879 2874 2870 2867 2865 2861 2857 2856 2852 2848 2844 2841 2838 2835
2908 2913 2917 2922 2927 2931 2933 2935 2936 2938 2940 2942 2942 2941 2940 2938 2936 2933 2928 2926 2925 2923 2920 2917 2914 2911 2909 2907 2904 2902 2901 2899 2894 2890 2887 2883 2878 2875 2872 2867 2865 2862 2858 2854 2851 2847 2844 2840 2838 2834 2832 2829 2827 2824
2906 2912 2917 2918 2922 2926 2927 2929 2931 2932 2933 2935 2935 2933 2932 2932 2928 2923 2916 2914 2913 2910 2908 2907 2905 2903 2900 2897 2894 2892 2891 2888 2883 2877 2874 2871 2865 2860 2856 2853 2850 2848 2846 2840 2836 2832 2829 2827 2825 2823 2821 2819 2816 2814
2903 2906 2912 2913 2918 2923 2923 2925 2926 2927 2928 2928 2927 2925 2924 2922 2918 2911 2908 2909 2908 2906 2904 2901 2898 2895 2891 2888 2884 2880 2878 2875 2868 2863 2861 2858 2854 2849 2843 2839 2835 2834 2834 2827 2822 2818 2816 2814 2812 2810 2808 2806 2804 2801
2899 2903 2908 2911 2914 2917 2919 2920 2921 2921 2920 2920 2919 2918 2917 2913 2907 2903 2904 2903 2901 2899 2896 2893 2889 2885 2880 2877 2874 2869 2865 2861 2857 2852 2849 2847 2844 2840 2833 2827 2822 2820 2817 2814 2810 2807 2803 2800 2798 2796 2794 2792 2790 2789
2899 2903 2907 2910 2911 2912 2913 2913 2913 2913 2912 2912 2911 2910 2907 2904 2899 2900 2898 2896 2893 2889 2886 2883 2880 2875 2871 2868 2864 2860 2857 2852 2848 2843 2839 2836 2833 2828 2822 2816 2811 2806 2802 2798 2794 2791 2788 2785 2783 2781 2780 2779 2779 2780
2898 2901 2903 2904 2905 2905 2906 2906 2906 2907 2907 2906 2903 2900 2897 2894 2893 2891 2890 2887 2883 2880 2876 2874 2872 2868 2865 2861 2857 2853 2848 2842 2836 2832 2827 2821 2817 2815 2807 2800 2795 2790 2785 2782 2779 2776 2773 2771 2770 2769 2768 2768 2770 2771
2897 2898 2899 2901 2901 2902 2904 2903 2902 2901 2898 2896 2894 2891 2888 2886 2887 2883 2879 2877 2874 2871 2869 2867 2864 2861 2858 2854 2850 2847 2842 2836 2829 2822 2813 2806 2801 2796 2791 2786 2781 2776 2773 2769 2767 2765 2763 2761 2760 2759 2759 2760 2762 2765
2896 2897 2898 2897 2897 2897 2897 2894 2893 2891 2890 2887 2886 2884 2880 2878 2875 2874 2871 2868 2865 2863 2862 2861 2858 2855 2851 2847 2842 2836 2832 2828 2820 2813 2806 2799 2793 2787 2782 2776 2771 2767 2764 2762 2759 2757 2756 2755 2754 2754 2754 2756 2759 2762
2894 2894 2893 2892 2891 2891 2889 2887 2885 2883 2883 2881 2879 2876 2874 2871 2868 2866 2864 2862 2861 2859 2858 2855 2853 2850 2846 2841 2836 2829 2823 2817 2810 2804 2798 2792 2786 2780 2774 2769 2764 2760 2758 2756 2754 2752 2751 2751 2751 2751 2753 2755 2758 2760
2890 2890 2889 2888 2886 2884 2883 2881 2878 2876 2874 2872 2870 2868 2865 2865 2863 2862 2860 2858 2857 2855 2853 2850 2848 2844 2839 2834 2828 2823 2817 2811 2806 2799 2793 2787 2782 2776 2771 2766 2761 2757 2755 2752 2751 2750 2750 2750 2751 2753 2754 2756 2758 2760